SCP
0 0 0 0 0 0 0 0 0 0 0 0 0 0 0 0 0 0 0 0 0 0 0 0 0 0 0 0 0 0 0 0 0 0 0 0 0 0
0 0 0 0 0 0 0 0 0 0 0 0 0 0 0 0 0 0 0 0 0 0 0 0 0 0 0 0 0 0 0 0 0 0 0 0 0 0
0 0 0 0 0 0 0 0 0 0 0 0 0 0 0 0 0 0 0 0 0 0 0 0 0 0 0 0 0 0 0 0 0 0 0 0 0 0
0 0 0 0 0 0 0 0 0 0 0 0 0 0 0 0 0 0 0 0 0 0 0 0 0 0 0 0 0 0 0 0 0 0 0 0 0 0
0 0 0 0 0 0 0 0 0 0 0 0 0 0 0 0 0 0 0 0 0 0 0 0 0 0 0 0 0 0 0 0 0 0 0 0 0 0
0 0 0 0 0 0 0 0 0 0 0 0 0 0 0 0 0 0 0 0 0 0 0 0 0 0 0 0 0 0 0 0 0 0 0 0 0 0
0 0 0 0 0 0 0 0 0 0 0 0 0 0 0 0 0 0 0 0 0 0 0 0 0 0 0 0 0 0 0 0 0 0 0 0 0 0
0 0 0 0 0 0 0 0 0 0 0 0 0 0 0 0 0 0 0 0 0 0 0 0 0 0 0 0 0 0 0 0 0 0 0 0 0 0
0 0 0 0 0 0 0 0 0 0 0 0 0 0 0 0 0 0 0 0 0 0 0 0 0 0 0 0 0 0 0 0 0 0 0 0 0 0
0 0 0 0 0 0 0 0 0 0 0 0 0 0 0 0 0 0 0 0 0 0 0 0 0 0 0 0 0 0 0 0 0 0 0 0 0 0
0 0 0 0 0 0 0 0 0 0 0 0 0 0 0 0 0 0 0 0 0 0 0 0 0 0 0 0 0 0 0 0 0 0 0 0 0 0
0 0 0 0 0 0 0 0 0 0 0 0 -0 -0 0 0 0 0 0 0 0 0 0 0 0 0 0 0 0 0 0 0 0 0 0 0 0 0
0 0 0 0 0 0 0 0 0 0 0 0 0 0 0 0 0 0 0 0 0 0 0 0 0 0 0 0 0 0 0 0 0 0 0 0 0 0
0 0 0 0 0 0 0 0 0 0 0 0 0 0 0 0 0 0 0 0 0 0 0 0 0 0 0 0 0 0 0 0 0 0 0 0 0 0
0 0 0 0 0 0 0 0 0 0 0 0 0 0 0 0 0 0 0 0 0 0 0 0 0 0 0 0 0 0 0 0 0 0 0 0 0 0
0 0 0 0 0 0 0 0 0 0 0 0 0 0 0 0 0 0 0 0 0 0 0 0 0 0 0 0 0 0 0 0 0 0 0 0 0 0
0 0 0 0 0 0 0 0 0 0 0 0 0 0 0 0 0 0 0 0 0 0 0 0 0 0 0 0 0 0 0 0 0 0 0 0 0 0
0 0 0 0 0 0 0 0 0 0 0 0 0 0 0 0 0 0 0 0 0 0 0 0 0 0 0 0 0 0 0 0 0 0 0 0 0 0
0 0 0 0 0 0 0 0 0 0 0 0 0 0 0 0 0 0 0 0 0 0 0 0 0 0 0 0 0 0 0 0 0 0 0 0 0 0
0 0 0 0 0 0 0 0 0 0 0 0 0 0 0 0 0 0 0 0 0 0 0 0 0 0 0 0 0 0 0 0 0 0 0 0 0 0
0 0 0 0 0 0 0 0 0 0 0 0 0 0 0 0 0 0 0 0 0 0 0 0 0 0 0 0 0 0 0 0 0 0 0 0 0 0
0 0 0 0 0 0 0 0 0 0 0 0 0 0 0 0 0 0 0 0 0 0 0 0 0 0 0 0 0 0 0 0 0 0 0 0 0 0
0 0 0 0 0 0 0 0 0 0 0 0 0 0 0 0 0 0 0 0 0 0 0 0 0 0 0 0 0 0 0 0 0 0 0 0 0 0
Wind_Speed
1 1 1 1 1 2 2 2 3 2 2 1 1 1 1 1 1 1 1 4 3 2 2 1 1 0 1 1 2 2 2 3 2 2 3 3 3 4
0 1 0 1 1 1 1 1 2 2 2 0 1 1 1 2 3 2 3 5 6 5 4 4 3 3 2 2 2 2 1 0 1 1 1 1 2 3
1 1 0 0 0 0 0 0 0 1 1 1 1 1 2 3 3 3 3 3 4 7 7 6 5 5 5 5 4 3 4 4 4 3 2 1 1 1
3 2 2 2 2 2 1 1 1 1 1 0 1 2 2 2 3 3 3 3 4 8 8 9 8 8 8 8 7 7 6 6 6 6 6 5 4 3
4 4 3 3 3 3 3 2 2 2 2 2 1 2 2 2 3 4 5 4 5 6 8 9 10 11 11 10 10 9 9 8 8 8 9 9 9 8
5 5 4 4 3 3 3 3 3 3 3 3 2 2 2 2 2 3 3 4 5 5 7 8 10 12 12 12 11 10 9 9 10 10 10 9 9 9
6 6 6 8 8 5 4 4 4 4 3 3 3 2 2 2 2 1 3 3 4 4 4 5 5 5 7 9 10 11 10 9 10 9 9 9 9 9
7 6 7 8 9 10 11 9 6 4 4 3 3 2 2 2 2 2 2 2 2 3 3 4 4 5 5 5 8 9 9 9 9 9 9 8 9 9
6 6 6 7 7 7 10 12 11 10 7 3 4 2 2 2 2 3 3 3 2 1 1 3 3 4 4 5 8 8 8 8 8 8 8 8 8 8
7 7 7 7 7 7 8 9 8 8 7 5 4 4 3 2 2 2 3 3 3 3 2 2 2 2 3 4 7 7 7 7 7 7 7 7 6 6
7 7 7 7 8 9 8 8 8 7 9 11 10 9 9 8 5 3 3 3 3 2 3 2 1 1 2 3 4 7 7 7 7 8 8 7 6 5
6 7 9 9 9 9 7 7 7 5 5 7 8 9 8 9 10 5 3 3 2 2 2 1 1 1 1 2 2 3 3 4 5 5 6 6 5 3
5 5 5 9 10 10 7 6 5 4 5 6 6 6 6 6 7 6 5 3 3 2 2 1 1 1 1 1 1 2 2 2 2 3 3 4 4 3
4 3 4 9 10 10 7 7 7 6 5 5 6 5 5 5 5 5 6 5 4 3 2 1 1 1 1 1 1 2 2 2 2 2 2 2 3 3
4 6 8 9 9 8 10 9 7 5 5 5 5 4 3 3 3 3 5 5 6 6 5 3 2 1 1 1 1 2 2 2 2 2 2 2 2 1
5 7 9 10 8 7 7 6 5 4 4 4 3 3 3 3 4 4 3 3 4 5 6 6 4 2 2 2 1 1 2 2 2 2 1 1 1 1
4 4 4 4 5 5 4 5 4 4 4 3 3 3 3 4 4 3 3 3 3 3 4 4 4 3 2 1 1 2 2 2 2 2 1 2 2 2
5 4 4 3 3 3 3 3 3 4 3 3 3 3 3 3 3 3 3 3 3 3 3 3 3 2 2 2 2 1 2 2 2 2 2 2 2 2
5 3 3 2 2 2 2 2 2 2 2 2 3 2 2 3 3 3 3 3 3 3 3 3 3 3 3 4 3 2 2 2 2 2 2 2 2 3
3 2 2 2 2 2 2 2 2 2 2 2 2 2 2 2 2 3 2 3 2 2 3 3 3 3 3 3 3 3 2 2 2 2 2 2 2 3
2 2 2 1 1 1 1 1 1 1 2 2 2 2 2 2 2 2 2 3 2 2 3 3 4 4 2 1 2 2 3 2 2 2 2 2 3 2
2 2 1 1 1 1 1 1 1 1 2 1 2 1 1 1 1 2 2 2 2 2 2 3 3 3 1 2 3 4 4 3 3 3 3 3 2 3
2 2 1 1 1 1 1 1 1 1 1 1 1 1 1 1 1 1 2 2 2 2 3 3 3 2 2 2 3 3 5 4 3 3 3 3 5 6
Wind_Direction
218 206 219 244 232 233 221 207 209 234 257 262 290 358 6 56 28 49 63 64 67 69 79 89 78 30 248 232 236 238 239 239 230 242 259 256 253 252
160 153 217 281 243 228 214 220 213 216 240 284 260 352 25 45 53 60 66 63 54 58 68 74 73 65 54 52 62 75 64 52 187 188 223 248 254 254
44 82 50 350 82 85 104 97 117 156 205 310 13 27 46 56 48 54 58 56 53 55 59 62 65 66 64 59 58 68 72 67 63 60 39 8 329 310
44 57 50 53 53 58 73 75 76 95 143 130 27 33 49 55 58 57 52 60 60 55 57 59 61 64 64 61 60 62 62 61 58 54 49 39 31 33
50 53 51 60 54 53 62 68 71 77 92 110 63 34 47 46 52 57 55 46 56 54 55 58 61 62 64 64 65 63 61 60 58 56 57 56 53 53
51 53 52 60 62 65 68 68 77 80 82 88 75 52 44 39 56 60 56 48 47 43 46 50 55 58 57 60 63 63 62 62 61 60 57 56 57 57
53 51 56 63 65 66 72 72 79 83 82 80 71 56 44 44 46 44 75 65 51 38 43 40 43 47 48 51 59 62 65 66 65 61 58 54 52 54
58 51 53 55 60 64 66 66 73 87 89 81 73 71 44 34 41 65 79 73 61 20 42 45 43 47 40 46 53 62 64 65 65 64 63 62 60 58
59 55 55 50 56 65 63 61 58 62 70 89 84 65 51 27 64 70 70 71 70 20 42 56 39 50 41 42 47 56 60 63 63 62 64 64 63 64
55 56 61 53 56 68 72 65 56 48 49 59 66 55 55 58 69 83 94 89 77 42 30 67 45 46 39 37 42 54 57 58 58 57 59 60 58 61
53 53 59 60 53 66 74 71 63 51 53 61 61 57 54 54 63 82 79 83 69 39 24 56 59 41 38 36 40 50 56 55 55 56 60 57 49 50
59 52 54 62 59 64 72 75 71 52 52 53 50 46 49 48 47 52 62 75 71 49 23 33 43 24 49 38 22 25 43 47 50 51 54 50 37 37
73 57 50 59 63 63 68 71 78 76 67 65 58 49 44 43 41 42 42 54 64 51 15 24 50 38 41 8 6 13 17 23 29 36 45 39 31 27
84 71 66 69 68 65 65 66 68 68 68 64 58 47 40 36 32 37 46 53 51 45 8 16 58 57 58 26 5 359 10 17 22 24 27 33 34 30
86 87 81 74 69 63 59 61 61 64 66 65 58 44 27 20 26 35 39 47 53 46 36 26 44 67 64 48 19 357 351 2 6 9 11 11 4 3
81 78 75 69 66 59 53 49 50 56 66 66 56 40 31 36 36 29 31 28 43 35 31 34 36 55 62 49 40 15 356 345 350 354 353 353 351 335
99 76 64 61 60 54 50 46 46 49 52 48 54 52 46 44 36 27 31 36 43 26 14 14 24 44 56 41 38 25 10 3 353 351 343 352 347 337
95 86 77 73 73 69 63 54 47 45 43 50 55 54 49 47 45 37 38 40 39 27 17 7 1 18 41 61 35 353 357 351 347 351 341 330 339 344
92 94 93 90 84 78 71 64 49 34 36 55 59 52 49 49 47 39 34 33 30 23 15 9 11 13 8 3 8 9 326 329 334 341 343 328 321 328
95 109 110 109 106 101 88 76 65 53 49 48 53 52 49 52 50 38 30 23 19 11 7 7 6 357 340 332 326 330 331 305 316 326 331 321 311 305
112 112 114 116 114 111 100 86 79 68 56 50 47 45 43 46 43 31 26 24 20 7 356 350 338 321 292 283 315 338 343 330 295 292 300 307 320 324
131 128 123 127 131 128 123 110 89 69 57 50 41 33 27 28 29 19 12 9 359 347 335 337 343 343 351 340 335 331 329 334 327 292 261 248 293 310
147 146 144 143 135 136 138 127 109 77 52 38 33 19 11 4 349 345 345 345 340 342 342 342 348 348 344 330 323 322 326 330 328 325 321 302 272 272